Waarnemingen

Advertentie
Mijn weer
Boulogne, Frankrijk (7002): temperatuur & dauwpunt: 19.04.2018 02:00:00 - 25.04.2018 02:00:00 (CEST)Boulogne, Frankrijk (7002): windsnelheid & windstoten: 19.04.2018 02:00:00 - 25.04.2018 02:00:00 (CEST)Boulogne, Frankrijk (7002): windrichting: 19.04.2018 02:00:00 - 25.04.2018 02:00:00 (CEST)Boulogne, Frankrijk (7002): luchtdruk: 19.04.2018 02:00:00 - 25.04.2018 02:00:00 (CEST)Boulogne, Frankrijk (7002): zicht: 19.04.2018 02:00:00 - 25.04.2018 02:00:00 (CEST)Boulogne, Frankrijk (7002): neerslag: 19.04.2018 02:00:00 - 25.04.2018 02:00:00 (CEST)
Datum & Tijd tt [°C] td [°C] ff [km/u] ff [kn] fx [km/u] fx [kn] dd ppp [hPa] vv [km] rr [mm]
25.04.2018 02:00:00 10,5 9,6 41 22 59 32 WZW 1010,8 6 0,0
25.04.2018 01:00:00 10,8 10,0 41 22 59 32 WZW 1011,2 - 0,0
25.04.2018 00:00:00 10,8 10,3 33 18 51 28 ZW 1011,5 - 0,0
24.04.2018 23:00:00 11,1 9,7 26 14 47 25 ZW 1012,3 - 0,0
24.04.2018 22:00:00 11,2 9,8 25 13 49 26 ZW 1012,4 - 0,0
24.04.2018 21:00:00 11,6 10,0 34 18 67 36 WZW 1012,9 - 0,0
24.04.2018 20:00:00 11,3 11,0 31 17 50 27 WZW 1013,6 - 0,2
24.04.2018 19:00:00 10,7 9,6 22 12 34 19 ZW 1014,2 - 0,0
24.04.2018 18:00:00 10,9 9,5 23 12 46 25 ZW 1015,0 - 0,0
24.04.2018 17:00:00 10,7 9,6 24 13 50 27 ZZW 1015,7 - 0,0
24.04.2018 16:00:00 9,9 9,3 26 14 51 27 ZZW 1016,5 - 0,0
24.04.2018 15:00:00 10,4 10,1 24 13 47 25 ZZW 1017,0 - 0,0
24.04.2018 14:00:00 10,0 10,0 26 14 44 24 ZW 1017,7 2,0 0,0
24.04.2018 13:00:00 9,9 9,9 26 14 42 23 ZW 1018,1 - 0,0
24.04.2018 12:00:00 9,7 9,7 26 14 45 25 ZW 1018,6 - 0,0
24.04.2018 11:00:00 9,7 9,6 27 14 45 25 ZW 1018,4 0,8 0,0
24.04.2018 10:00:00 9,6 9,6 21 12 41 22 ZW 1018,2 - 0,0
24.04.2018 09:00:00 9,5 9,4 27 15 42 23 ZW 1017,9 - 0,2
24.04.2018 08:00:00 9,4 9,3 25 13 42 23 ZW 1017,7 1,0 0,0
24.04.2018 07:00:00 9,2 8,6 29 15 41 22 ZW 1017,4 - 0,0
24.04.2018 06:00:00 9,6 8,0 29 15 52 28 ZW 1017,7 - 0,0
24.04.2018 05:00:00 9,7 7,6 33 18 56 30 ZW 1017,5 - 0,0
24.04.2018 04:00:00 9,8 7,2 29 15 46 25 ZW 1017,6 - 0,0
24.04.2018 03:00:00 9,7 7,1 30 16 48 26 ZW 1017,9 - 0,0
24.04.2018 02:00:00 9,6 7,2 28 15 48 26 ZW 1018,2 10 0,0
24.04.2018 01:00:00 9,6 7,0 30 16 53 28 ZW 1018,3 - 0,0
24.04.2018 00:00:00 9,7 7,0 37 20 53 29 WZW 1018,5 - 0,0
23.04.2018 23:00:00 9,6 7,0 37 20 54 29 WZW 1018,4 10 0,0
23.04.2018 22:00:00 9,6 7,2 37 20 55 30 WZW 1018,8 - 0,0
23.04.2018 21:00:00 9,6 7,5 39 21 52 28 WZW 1018,2 - 0,0
23.04.2018 20:00:00 10,0 6,9 35 19 55 30 WZW 1018,3 - 0,0
23.04.2018 19:00:00 10,4 8,5 33 18 48 26 ZW 1018,5 - 0,0
23.04.2018 18:00:00 10,6 8,2 29 16 49 26 ZW 1018,8 - 0,0
23.04.2018 17:00:00 10,5 7,7 33 18 48 26 WZW 1018,8 7 0,0
23.04.2018 16:00:00 11,2 8,1 29 16 48 26 WZW 1019,1 - 0,0
23.04.2018 15:00:00 11,0 7,7 33 18 48 26 WZW 1019,1 - 0,0
23.04.2018 14:00:00 10,6 8,2 34 19 46 25 ZW 1018,9 15 0,0
23.04.2018 13:00:00 10,6 7,5 31 17 48 26 ZW 1018,8 - 0,0
23.04.2018 12:00:00 10,6 7,7 27 15 38 21 WZW 1018,8 - 0,0
23.04.2018 11:00:00 10,3 7,7 24 13 39 21 WZW 1018,2 15 0,0
23.04.2018 10:00:00 9,8 7,2 21 11 36 20 W 1017,8 - 0,0
23.04.2018 09:00:00 9,3 6,9 19 11 33 18 W 1017,5 - 0,0
23.04.2018 08:00:00 8,8 6,9 22 12 34 18 W 1016,9 10 0,0
23.04.2018 07:00:00 8,4 8,1 15 8 28 15 WZW 1016,1 - 0,0
23.04.2018 06:00:00 8,8 8,7 19 11 28 15 WZW 1015,6 - 0,0
23.04.2018 05:00:00 9,4 9,1 16 9 28 15 WZW 1015,3 8 0,0
23.04.2018 04:00:00 9,6 9,1 18 10 29 16 WZW 1015,0 - 0,0
23.04.2018 03:00:00 9,8 9,3 22 12 31 17 ZW 1014,4 - 0,0
23.04.2018 02:00:00 10,1 9,3 21 11 35 19 ZW 1014,4 - 0,0
23.04.2018 01:00:00 10,3 9,1 24 13 42 23 ZW 1013,9 - 0,0
23.04.2018 00:00:00 10,2 7,8 18 10 34 18 ZZW 1013,5 - 0,0
22.04.2018 23:00:00 10,4 7,3 19 11 32 17 ZZW 1013,1 8 0,0
22.04.2018 22:00:00 10,1 6,6 16 9 41 22 ZW 1012,8 - 0,0
22.04.2018 21:00:00 10,5 7,7 27 14 42 23 WZW 1011,9 - 0,0
22.04.2018 20:00:00 11,9 8,9 25 13 44 24 ZW 1011,7 8 0,0
22.04.2018 19:00:00 12,5 9,3 23 12 44 24 WZW 1011,6 - 0,0
22.04.2018 18:00:00 14,8 10,6 21 12 35 19 WZW 1011,2 - 0,0
22.04.2018 17:00:00 15,4 9,7 18 10 36 19 ZW 1011,1 - 0,0
22.04.2018 16:00:00 15,9 9,8 23 12 32 17 ZW 1011,3 - 0,0
22.04.2018 15:00:00 17,1 10,5 21 11 34 19 ZW 1011,1 - 0,0
22.04.2018 14:00:00 17,4 12,3 23 12 35 19 ZW 1011,3 8 0,0
22.04.2018 13:00:00 19,0 13,0 21 12 33 18 ZW 1011,1 - 0,0
22.04.2018 12:00:00 17,9 13,2 17 9 29 16 ZW 1011,1 - 0,0
22.04.2018 11:00:00 15,1 12,2 9 5 21 12 W 1011,3 8 0,0
22.04.2018 10:00:00 19,6 11,6 14 8 26 14 ZZO 1011,3 - 0,0
22.04.2018 09:00:00 17,8 10,7 13 7 21 11 ZO 1011,1 - 0,0
22.04.2018 08:00:00 17,3 9,7 14 7 21 11 ZO 1011,4 12 0,0
22.04.2018 07:00:00 16,5 10,1 4 2 22 12 Z 1011,5 - 0,0
22.04.2018 06:00:00 17,2 9,9 14 7 29 16 ZO 1011,6 - 0,0
22.04.2018 05:00:00 18,7 10,0 17 9 34 19 OZO 1012,7 12 0,4
22.04.2018 04:00:00 15,0 11,4 4 2 29 16 ZZW 1015,0 - 0,2
22.04.2018 03:00:00 15,8 10,3 24 13 63 34 WZW 1015,8 - 0,0
22.04.2018 02:00:00 19,4 10,1 20 11 46 25 OZO 1014,5 - 0,0
22.04.2018 01:00:00 19,6 10,0 19 11 40 22 ZO 1015,0 - 0,0
22.04.2018 00:00:00 20,1 10,5 19 11 37 20 OZO 1015,3 - 0,0
21.04.2018 23:00:00 20,6 10,4 19 10 34 19 OZO 1015,6 - 0,0
21.04.2018 22:00:00 20,5 11,4 16 9 32 17 O 1016,4 - 0,0
21.04.2018 21:00:00 20,8 13,5 13 7 27 15 O 1016,8 - 0,0
21.04.2018 20:00:00 23,1 10,2 14 7 26 14 O 1016,7 10 0,0
21.04.2018 19:00:00 23,8 11,1 8 5 15 8 ZO 1017,3 - 0,0
21.04.2018 18:00:00 21,8 13,4 7 4 16 8 NNW 1018,2 - 0,0
21.04.2018 17:00:00 22,0 12,8 9 5 14 8 NNW 1018,6 - 0,0
21.04.2018 16:00:00 21,6 14,5 7 4 14 7 NNW 1019,4 - 0,0
21.04.2018 15:00:00 21,1 13,5 7 4 13 7 NW 1020,2 - 0,0
21.04.2018 14:00:00 20,3 12,8 5 3 10 5 NW 1020,5 - 0,0
21.04.2018 13:00:00 19,0 12,5 5 3 11 6 NW 1021,2 - 0,0
21.04.2018 12:00:00 19,1 12,4 3 2 21 11 WNW 1021,6 - 0,0
21.04.2018 11:00:00 20,1 11,0 11 6 18 10 ZO 1021,9 4,0 0,0
21.04.2018 10:00:00 18,2 10,8 6 3 12 6 ZO 1022,0 - 0,0
21.04.2018 09:00:00 15,5 9,4 3 2 15 8 ZZW 1022,2 - 0,0
21.04.2018 08:00:00 14,4 8,6 4 2 6 4 O 1022,3 - 0,0
21.04.2018 07:00:00 12,6 8,3 2 1 15 8 ZO 1022,1 - 0,0
21.04.2018 06:00:00 14,6 8,1 11 6 20 11 OZO 1021,9 - 0,0
21.04.2018 05:00:00 14,7 8,4 11 6 21 11 O 1022,2 - 0,0
21.04.2018 04:00:00 14,7 9,3 12 7 18 10 O 1022,4 - 0,0
21.04.2018 03:00:00 14,1 8,7 7 4 13 7 OZO 1022,6 - 0,0
21.04.2018 02:00:00 15,5 8,5 9 5 16 8 O 1022,9 - 0,0
21.04.2018 01:00:00 15,4 8,6 9 5 24 13 O 1023,2 - 0,0
21.04.2018 00:00:00 15,3 8,3 13 7 23 12 O 1023,2 - 0,0
20.04.2018 23:00:00 16,2 7,7 6 4 15 8 O 1023,3 - 0,0
20.04.2018 22:00:00 16,3 8,8 6 4 8 4 OZO 1023,1 - 0,0
20.04.2018 21:00:00 15,0 8,9 5 3 10 5 NNO 1023,1 - 0,0
20.04.2018 20:00:00 17,4 9,6 5 3 12 6 WNW 1022,8 10 0,0
20.04.2018 19:00:00 19,5 8,2 8 4 13 7 WZW 1022,7 - 0,0
20.04.2018 18:00:00 19,1 9,6 8 4 16 9 ZW 1023,0 - 0,0
20.04.2018 17:00:00 18,6 9,6 9 5 17 9 ZW 1023,5 10 0,0
20.04.2018 16:00:00 18,7 8,4 11 6 17 9 WZW 1023,8 - 0,0
20.04.2018 15:00:00 17,8 9,2 13 7 21 11 WZW 1024,1 - 0,0
20.04.2018 14:00:00 18,0 8,3 11 6 18 10 WZW 1024,0 - 0,0
20.04.2018 13:00:00 18,6 9,9 10 5 14 8 W 1024,1 - 0,0
20.04.2018 12:00:00 17,0 10,6 8 5 14 8 W 1024,1 - 0,0
20.04.2018 11:00:00 15,7 9,1 9 5 16 9 WZW 1024,0 - 0,0
20.04.2018 10:00:00 14,8 9,8 11 6 21 11 ZW 1023,7 - 0,0
20.04.2018 09:00:00 16,1 12,5 2 1 11 6 ZO 1023,3 - 0,0
20.04.2018 08:00:00 16,0 11,2 9 5 13 7 ZO 1023,0 10 0,0
20.04.2018 07:00:00 14,6 11,2 11 6 13 7 ZO 1022,8 - 0,0
20.04.2018 06:00:00 14,9 11,5 8 4 11 6 ZO 1022,8 - 0,0
20.04.2018 05:00:00 14,4 11,0 4 2 10 5 ZZW 1022,9 10 0,0
20.04.2018 04:00:00 16,4 11,3 4 2 5 3 Z 1022,9 - 0,0
20.04.2018 03:00:00 16,3 11,2 2 1 10 6 ZO 1022,9 - 0,0
20.04.2018 02:00:00 15,1 10,9 5 3 11 6 ZW 1023,5 - 0,0
20.04.2018 01:00:00 19,7 12,2 10 5 11 6 ZO 1023,2 - 0,0
20.04.2018 00:00:00 20,4 12,4 5 3 9 5 O 1023,2 - 0,0
19.04.2018 23:00:00 20,8 11,7 8 5 10 5 OZO 1023,5 10 0,0
19.04.2018 22:00:00 21,0 11,6 7 4 14 8 O 1023,5 - 0,0
19.04.2018 21:00:00 22,0 12,0 6 4 9 5 O 1023,2 - 0,0
19.04.2018 20:00:00 22,6 11,6 6 3 9 5 NNO 1023,1 8 0,0
19.04.2018 19:00:00 23,6 11,3 4 2 6 4 NNW 1023,2 - 0,0
19.04.2018 18:00:00 23,7 11,1 2 1 11 6 NW 1023,2 - 0,0
19.04.2018 17:00:00 22,5 8,6 4 2 10 6 NNW 1023,5 8 0,0
19.04.2018 16:00:00 20,5 8,2 7 4 13 7 NNW 1023,9 - 0,0
19.04.2018 15:00:00 20,3 8,3 7 4 12 7 NW 1024,2 - 0,0
19.04.2018 14:00:00 19,5 9,7 6 3 15 8 NW 1024,4 - 0,0
19.04.2018 13:00:00 20,2 10,3 6 3 13 7 WNW 1024,2 - 0,0
19.04.2018 12:00:00 18,8 10,1 5 3 15 8 N 1024,4 - 0,0
19.04.2018 11:00:00 21,1 10,3 6 4 18 10 ZZW 1024,4 15 0,0
19.04.2018 10:00:00 20,6 8,2 11 6 25 14 ZO 1024,2 - 0,0
19.04.2018 09:00:00 19,1 7,2 18 10 29 15 ZO 1024,2 - 0,0
19.04.2018 08:00:00 18,1 6,6 18 10 32 18 ZO 1024,0 - 0,0
19.04.2018 07:00:00 17,7 6,2 21 12 33 18 ZO 1023,8 - 0,0
19.04.2018 06:00:00 18,0 6,2 20 11 32 17 ZO 1023,9 - 0,0
19.04.2018 05:00:00 18,6 6,4 19 11 30 16 ZO 1024,3 10 0,0
19.04.2018 04:00:00 19,3 7,1 19 10 32 17 ZO 1024,4 - 0,0
19.04.2018 03:00:00 20,1 8,1 16 8 31 17 OZO 1024,6 - 0,0
19.04.2018 02:00:00 18,8 8,2 13 7 24 13 O 1025,1 - 0,0

tt = temperatuur
td = dauwpunt
ff = windsnelheid
fx = windstoten
dd = windrichting
ppp = luchtdruk
vv = zicht
rr = neerslag

Weerstations in de omgeving